Hourly Data Report for October 05, 2017

All times are specified in Local Standard Time (LST). Add 1 hour to adjust for Daylight Saving Time where and when it is observed.

WINNIPEG A CS
MANITOBA

49°55'00.000" N
97°14'58.000" W
238.70 m
502S001
71849
XWG

Download Data

Hourly Data (October 2017)
Hourly Data Report for October 5, 2017
Temp Definition
°C
Dew Point Temp Definition
°C
Rel Hum Definition
%
Wind Dir Definition
10's deg

Wind Spd Definition
km/h
Visibility Definition
km
Stn Press Definition
kPa
Hmdx Definition


Wind Chill Definition


Weather Definition


TIME
00:00 4.1 2.2 87 25 13   99.02     LegendNANA
01:00 3.2 1.5 88 26 14   99.04     LegendNANA
02:00 0.6 -0.2 94 28 11   99.08     LegendNANA
03:00 0.0 -0.7 95 28 11   99.08   -4 LegendNANA
04:00 -1.0 -1.6 96 30 9   99.10   -4 LegendNANA
05:00 -0.8 -1.2 97 27 7   99.13   -3 LegendNANA
06:00 -2.1 -2.7 96 30 8   99.13   -5 LegendNANA
07:00 -1.4 -2.1 95 27 7   99.17   -4 LegendNANA
08:00 3.0 1.9 93 32 5   99.20     LegendNANA
09:00 7.5 3.4 75 34 10   99.21     LegendNANA
10:00 9.8 2.3 59 36 16   99.22     LegendNANA
11:00 10.7 2.4 57 35 13   99.22     LegendNANA
12:00 10.4 1.4 54 30 12   99.19     LegendNANA
13:00 12.2 0.7 45 30 16   99.12     LegendNANA
14:00 13.0 0.6 43 30 16   99.09     LegendNANA
15:00 13.2 -0.5 39 30 16   99.06     LegendNANA
16:00 12.2 -1.0 40 30 19   99.04     LegendNANA
17:00 11.1 -1.6 41 32 13   99.03     LegendNANA
18:00 6.3 -1.6 57 34 10   98.99     LegendNANA
19:00 6.1 -0.3 63   0   98.96     LegendNANA
20:00 3.0 -1.5 72 34 1   98.97     LegendNANA
21:00 4.0 -0.4 73 16 7   98.93     LegendNANA
22:00 3.7 -0.2 76 18 10   98.91     LegendNANA
23:00 4.3 0.0 74 19 13   98.88     LegendNANA

Notes on Data Quality.

Legend

  • E = Estimated
  • M = Missing
  • NA = Not Available
  • ‡ = Partner data that is not subject to review by the National Climate Archives
Date modified: